KC5AEE Weather Reports


Display with metric or nautical units.
time (UTC)temp
F
wind
direction
speed
MPH
gust
MPH
rain 1hr
in
rain 24hr
in
rain mn
in
humidity
%
barometer
mb
20260506021720 49 360 3.0 6.0 0.00 0.01 0.01 65 1013.8
20260506014720 50 360 5.0 11.0 0.00 0.01 0.01 62 1013.3
20260506011718 51 360 6.0 14.0 0.00 0.01 0.01 60 1012.8
20260506010223 51 360 8.0 14.0 0.00 0.01 0.01 59 1013.2
20260506003222 52 360 8.0 14.0 0.00 0.01 0.01 55 1012.9
20260506000219 54 360 7.0 15.0 0.00 0.01 0.01 51 1012.8
20260505234720 55 360 8.0 15.0 0.00 0.01 0.01 52 1012.8
20260505233219 55 360 9.0 15.0 0.00 0.01 0.01 54 1012.8
20260505230223 53 360 8.0 13.0 0.00 0.01 0.01 61 1012.9
20260505224719 52 360 8.0 12.0 0.00 0.01 0.01 63 1013.0
20260505223217 50 360 14.0 24.0 0.00 0.01 0.01 65 1013.4
20260505220215 52 360 13.0 20.0 0.00 0.01 0.01 61 1013.4
20260505214720 54 360 15.0 23.0 0.00 0.01 0.01 58 1013.4
20260505213216 56 360 12.0 22.0 0.00 0.01 0.01 55 1013.4
20260505211721 55 360 15.0 25.0 0.00 0.01 0.01 56 1013.6
20260505204715 55 360 13.0 23.0 0.00 0.01 0.01 59 1013.6
20260505201719 53 360 14.0 23.0 0.00 0.01 0.01 64 1014.0
20260505200223 53 360 12.0 19.0 0.01 0.01 0.01 66 1013.9
20260505193223 50 360 10.0 20.0 0.01 0.01 0.01 80 1014.1
20260505191718 49 360 11.0 17.0 0.01 0.01 0.01 82 1014.3
20260505190223 50 360 13.0 28.0 0.00 0.00 0.00 72 1014.8
20260505183218 56 360 9.0 16.0 0.00 0.00 0.00 53 1014.3
20260505181717 56 360 9.0 18.0 0.00 0.00 0.00 53 1014.4
20260505180220 56 360 9.0 16.0 0.00 0.00 0.00 52 1014.5
20260505174720 56 360 7.0 14.0 0.00 0.00 0.00 51 1014.5
20260505171718 54 360 4.0 11.0 0.00 0.00 0.00 53 1014.8
20260505170225 52 360 1.0 5.0 0.00 0.00 0.00 57 1014.8
20260505164720 51 360 3.0 9.0 0.00 0.00 0.00 58 1014.9
20260505163219 49 360 3.0 8.0 0.00 0.00 0.00 63 1015.0
20260505161720 49 360 3.0 6.0 0.00 0.00 0.00 63 1015.2
20260505160222 49 360 3.0 9.0 0.00 0.00 0.00 60 1015.4
20260505153217 48 360 3.0 8.0 0.00 0.00 0.00 62 1015.5
20260505151717 48 360 3.0 6.0 0.00 0.00 0.00 63 1015.5
20260505150220 48 360 4.0 9.0 0.00 0.00 0.00 63 1015.5
20260505140222 50 360 4.0 11.0 0.00 0.00 0.00 55 1015.6
20260505130215 49 360 8.0 13.0 0.00 0.00 0.00 55 1015.2
20260505123217 48 360 5.0 9.0 0.00 0.00 0.00 51 1015.2
20260505121715 49 360 6.0 10.0 0.00 0.00 0.00 50 1015.4
20260505120214 49 360 6.0 9.0 0.00 0.00 0.00 48 1015.0
20260505114718 49 360 5.0 10.0 0.00 0.00 0.00 47 1014.9
20260505113219 49 360 4.0 10.0 0.00 0.00 0.00 45 1015.2
20260505111716 50 360 5.0 10.0 0.00 0.00 0.00 44 1014.9
20260505110220 50 360 7.0 11.0 0.00 0.00 0.00 43 1015.2
20260505101716 50 360 2.0 4.0 0.00 0.00 0.00 39 1015.0
20260505100220 50 360 2.0 5.0 0.00 0.00 0.00 39 1014.8
20260505094717 51 360 3.0 9.0 0.00 0.00 0.00 38 1014.7
20260505093217 51 360 3.0 6.0 0.00 0.00 0.00 40 1014.6
20260505091717 52 360 7.0 12.0 0.00 0.00 0.00 40 1014.5
20260505090222 52 360 9.0 14.0 0.00 0.00 0.00 40 1014.7
20260505084719 53 360 9.0 16.0 0.00 0.00 0.00 39 1014.8
20260505083217 53 360 9.0 16.0 0.00 0.00 0.00 39 1015.0
20260505081720 53 360 8.0 14.0 0.00 0.00 0.00 38 1015.0
20260505080220 54 360 9.0 17.0 0.00 0.00 0.00 38 1015.6
20260505074716 54 360 10.0 16.0 0.00 0.00 0.00 37 1015.4
20260505073217 54 360 10.0 18.0 0.00 0.00 0.00 35 1015.4
20260505071717 54 360 9.0 16.0 0.00 0.00 0.00 35 1015.2
20260505064721 55 360 9.0 16.0 0.00 0.00 0.00 33 1015.3
20260505063222 56 360 10.0 19.0 0.00 0.00 0.00 32 1015.2
20260505060224 56 360 6.0 12.0 0.00 0.00 0.00 30 1015.5
20260505054719 57 360 8.0 19.0 0.00 0.00 0.00 30 1015.5
20260505051716 58 360 11.0 21.0 0.00 0.00 0.00 28 1015.2
20260505050222 58 360 12.0 23.0 0.00 0.00 0.00 28 1015.0
20260505041719 59 360 12.0 20.0 0.00 0.00 0.00 28 1014.9
20260505040221 59 360 13.0 20.0 0.00 0.00 0.00 27 1015.0
20260505034718 60 360 13.0 22.0 0.00 0.00 0.00 27 1015.2
20260505033221 60 360 15.0 25.0 0.00 0.00 0.00 26 1014.9
20260505031719 61 360 14.0 24.0 0.00 0.00 0.00 25 1014.7
20260505024719 62 360 15.0 29.0 0.00 0.00 0.00 24 1014.4